Location: Chuathbaluk
(61.5726°N, 159.2454°W)
Time: 17:38:16
(UTC+00:00)

ZACube-1 - Pass Details

Date: 18 January 2021
Orbit: 583 x 666 km, 97.6° (Epoch: 04 March)

Event Time Altitude Azimuth Distance (km) Brightness Sun altitude
Rises 15:48:36 0° 17° (NNE) 3,022 ? -24.8°
Reaches altitude 10° 15:50:53 10° 21° (NNE) 2,107 ? -24.6°
Maximum altitude 15:55:26 58° 101° (E) 780 ? -24.0°
Drops below altitude 10° 15:59:58 10° 182° (S) 2,086 ? -23.5°
Sets 16:02:12 0° 186° (S) 2,988 ? -23.2°
